logo tempoitalia

Diretta Meteo Alicante-El Altet, Spagnalunedì 31 agosto ore 07:00

Mappa
Sereno 21 °C Sereno 24 Ore: T.min 21 T.max 32
Ponente Ovest/Sud-Ovest Km/h 9.3 Punto di rugiada: 13 °C Umidità: 60% Visibilità: 10 Km
Il sole sorge alle: 07:30 Il sole tramonta alle: 20:34
31 Agosto 2026 07:00 tempo osservato: Sereno Sereno 21 60 1016 vento: Nord O/SO 9.3
31 Agosto 2026 06:30 tempo osservato: Sereno Sereno 21 60 1016 vento: Nord N 3.7
31 Agosto 2026 06:00 tempo osservato: Sereno Sereno 22 60 1016 vento: Nord N 5.5
31 Agosto 2026 05:30 tempo osservato: Sereno Sereno 21 68 1016 vento: Nord NO 7.4
31 Agosto 2026 05:00 tempo osservato: Sereno Sereno 22 64 1016 vento: Nord N 3.7
31 Agosto 2026 04:30 tempo osservato: Sereno Sereno 22 64 1016 vento: Nord N 5.5
31 Agosto 2026 04:00 tempo osservato: Sereno Sereno 22 68 1017 vento: Nord N 5.5
31 Agosto 2026 03:30 tempo osservato: Sereno Sereno 22 73 1017 vento: Nord N 5.5
31 Agosto 2026 03:00 tempo osservato: Sereno Sereno 22 78 1017 vento: Nord N 5.5
31 Agosto 2026 02:30 tempo osservato: Sereno Sereno 23 78 1017 vento: Nord N 5.5
31 Agosto 2026 02:00 tempo osservato: Sereno Sereno 23 83 1017 vento: Nord N 5.5
31 Agosto 2026 01:30 tempo osservato: Sereno Sereno 24 83 1017 vento: Nord N 5.5
31 Agosto 2026 01:00 tempo osservato: Sereno Sereno 24 88 1017 vento: Nord O 7.4
31 Agosto 2026 00:30 tempo osservato: Sereno Sereno 24 83 1017 vento: Nord N 1.8
31 Agosto 2026 00:00 tempo osservato: Sereno Sereno 24 83 1017 vento: Nord N 3.7
30 Agosto 2026 23:30 tempo osservato: Sereno Sereno 25 83 1017 vento: Nord N 5.5
30 Agosto 2026 23:00 tempo osservato: Sereno Sereno 25 88 1017 vento: Nord O 7.4
30 Agosto 2026 22:30 tempo osservato: Sereno Sereno 26 83 1017 vento: Nord N 5.5
30 Agosto 2026 22:00 tempo osservato: Sereno Sereno 26 78 1017 vento: Nord N 3.7
30 Agosto 2026 21:30 tempo osservato: Sereno Sereno 27 78 1016 vento: Nord N 1.8
30 Agosto 2026 21:00 tempo osservato: Sereno Sereno 27 78 1016 vento: Nord N 5.5
30 Agosto 2026 20:30 tempo osservato: Sereno Sereno 28 69 1016 vento: Nord E/SE 7.4
30 Agosto 2026 20:00 tempo osservato: Sereno Sereno 29 58 1016 vento: Nord E 7.4
30 Agosto 2026 19:30 tempo osservato: Sereno Sereno 29 54 1015 vento: Nord E 11.1
30 Agosto 2026 19:00 tempo osservato: Sereno Sereno 30 45 1015 vento: Nord E 9.3
30 Agosto 2026 18:30 tempo osservato: Sereno Sereno 30 45 1015 vento: Nord E 13
30 Agosto 2026 18:00 tempo osservato: Sereno Sereno 30 48 1015 vento: Nord E 13
30 Agosto 2026 17:30 tempo osservato: Sereno Sereno 30 48 1016 vento: Nord E 13
30 Agosto 2026 17:00 tempo osservato: Sereno Sereno 30 55 1016 vento: Nord E 14.8
30 Agosto 2026 16:30 tempo osservato: Sereno Sereno 31 52 1016 vento: Nord E 18.5
30 Agosto 2026 16:00 tempo osservato: Sereno Sereno 32 46 1017 vento: Nord E/SE 13
30 Agosto 2026 15:30 tempo osservato: Sereno Sereno 31 40 1017 vento: Nord E/SE 14.8
30 Agosto 2026 15:00 tempo osservato: Sereno Sereno 32 38 1017 vento: Nord E/SE 18.5
30 Agosto 2026 14:30 tempo osservato: Sereno Sereno 32 33 1017 vento: Nord E/SE 16.7
30 Agosto 2026 14:00 tempo osservato: Sereno Sereno 31 43 1018 vento: Nord E/SE 13
30 Agosto 2026 13:30 tempo osservato: Sereno Sereno 31 35 1018 vento: Nord E 11.1
30 Agosto 2026 13:00 tempo osservato: Sereno Sereno 30 51 1018 vento: Nord E 13
30 Agosto 2026 12:30 tempo osservato: Sereno Sereno 29 54 1018 vento: Nord E 13
30 Agosto 2026 12:00 tempo osservato: Sereno Sereno 29 51 1018 vento: Nord E 13
30 Agosto 2026 11:30 tempo osservato: Sereno Sereno 30 42 1018 vento: Nord E 7.4
30 Agosto 2026 11:00 tempo osservato: Sereno Sereno 29 35 1018 vento: Nord N 5.5
30 Agosto 2026 10:30 tempo osservato: Sereno Sereno 28 42 1017 vento: Nord N 5.5
30 Agosto 2026 10:00 tempo osservato: Sereno Sereno 27 47 1017 vento: Nord N 3.7
30 Agosto 2026 09:30 tempo osservato: Sereno Sereno 26 50 1017 vento: Nord N 1.8
30 Agosto 2026 09:00 tempo osservato: Sereno Sereno 26 50 1017 vento: Nord N 0
30 Agosto 2026 08:30 tempo osservato: Sereno Sereno 22 60 1017 vento: Nord N 1.8
30 Agosto 2026 08:00 tempo osservato: Sereno Sereno 21 64 1017 vento: Nord N 3.7